x

Buoy B01 - Western Maine Shelf (44030) Wave Buoy

2:04 - Mon 26th Sep 2016 All times are EDT. -4 hours from GMT.

  • Sig Wave height 1.3ft
  • Peak Period 11s
  • Wind
    11mph
  • Sea Temp 61°f
  • Air Temp 56°f
  • Sea Pressure 1020.6mb
  • Buoy B01 - Western Maine Shelf
  • Buoy B01 - Western Maine Shelf

More Historic Weather Station data

Upgrade to MSW Pro to gain access to the past 30 days of data for over 8000 Wavebouys and Weather Stations around the globe.

Join Pro

Comparision Forecast

View Surf forecast
   
lun. 09/26 2:04 1.3ft 11s 11
mph
1020.6mb 61f 56f
1:04 1.3ft 11s 7 9 mph 1021.5mb 61f 56f
12:04 1ft 11s 4
mph
1022mb 61f 56f
11:04 0.7ft  -  4
mph
1022.6mb 60f 56f
10:04 1.3ft 11s 4 7 mph 1022.8mb 59f 55f
9:04 1ft 2s 11
mph
1022.6mb 59f 53f
8:04 1ft 2s 11
mph
1022.8mb 58f 51f
7:04 1ft 3s 9 11 mph 1022.6mb 58f 52f
6:04 1.3ft 3s 11 13 mph 1022.1mb 59f 51f
5:04 1.3ft 3s 11 13 mph 1021.8mb 60f 52f
4:04 1.3ft 4s 11 13 mph 1021.5mb 60f 53f
3:04 1.3ft 4s 11 13 mph 1022mb 60f 53f
2:04 1.6ft 4s 11 13 mph 1022.5mb 60f 53f
1:04  -   -  13 16 mph 1022.2mb 60f 56f
12:04 3.5ft 11s 18 22 mph 1022mb 60f 56f
dim. 09/25 11:04 2.5ft 4s 20 22 mph 1021.7mb 59f 56f
10:04 2.5ft 4s 20 25 mph 1021.5mb 59f 57f
9:04 2.5ft 4s 20 22 mph 1020.9mb 59f 58f
8:04 2.5ft 4s 16 18 mph 1020.3mb 59f 58f
7:04 2.5ft 3s 16 18 mph 1019.4mb 59f 59f
6:04 1.6ft 3s 13 18 mph 1018.5mb 59f 61f
5:04 1.6ft 3s 13 16 mph 1017.8mb 60f 61f
4:04 1.3ft 4s 13 20 mph 1017.6mb 60f 61f
3:04  -   -  4 7 mph 1017.9mb 60f 60f
2:04  -   -  2 4 mph 1018.1mb 60f 59f
1:04 2.5ft 11s 9 11 mph 1018.7mb 59f 57f
12:04 1.3ft 3s 11 16 mph 1018.8mb 59f 56f
11:04 1.3ft 3s 13 16 mph 1019.1mb 59f 55f
10:04 1.6ft 3s 16 18 mph 1019.1mb 59f 53f
9:04 1.6ft 3s 18 20 mph 1019.3mb 59f 52f
8:04 1.6ft 3s 13 16 mph 1019.4mb 59f 51f
7:04 2ft 3s 16 18 mph 1019.4mb 59f 50f
6:04 2ft 3s 16 20 mph 1018.9mb 59f 51f
5:04 2.5ft 4s 16 18 mph 1018.7mb 59f 52f
4:04 2.5ft 3s 18 22 mph 1018.5mb 59f 53f
3:04 2ft 3s 16 20 mph 1018.8mb 58f 53f
2:04 2.5ft 3s 18 22 mph 1018.8mb 59f 55f
1:04 2.5ft 3s 25 31 mph 1018.2mb 59f 56f
12:04  -   -  18 22 mph 1018.3mb 59f 56f
sam. 09/24 11:04  -   -  18 20 mph 1018.2mb 58f 57f
10:04 1.3ft 2s 13 16 mph 1018mb 57f 57f
9:04 1.6ft 5s 13 16 mph 1017.9mb 58f 58f
8:04 1.6ft 5s 13 16 mph 1017.7mb 58f 59f
7:04 2ft 5s 13 16 mph 1017.7mb 58f 60f
6:04  -   -  13 16 mph 1017.1mb 59f 61f
5:04 3.5ft 11s 11 13 mph 1016.7mb 60f 62f
4:04 2ft 5s 7
mph
1017.1mb 61f 61f
3:04 2.5ft 11s 4 7 mph 1017.4mb 61f 60f
2:04 2.5ft 11s 2
mph
1017.9mb 61f 62f
1:04 1.6ft 3s 2 4 mph 1018.7mb 60f 60f
12:04 2ft 5s 4 7 mph 1019.3mb 59f 59f
11:04 2.5ft 5s 13
mph
1019.8mb 58f 57f
10:04 2.5ft 5s 18 22 mph 1019.9mb 58f 56f
9:04 2.5ft 5s 16 18 mph 1019.6mb 59f 55f
8:04 2.5ft 5s 18 20 mph 1019.8mb 60f 55f
7:04 2.5ft 6s 13 16 mph 1019.4mb 60f 55f
6:04 2.5ft 5s 11 13 mph 1019.1mb 61f 55f
5:04 4ft 11s 13
mph
1018.9mb 61f 55f
4:04 2.5ft 5s 11 13 mph 1018.2mb 61f 56f
3:04 3ft 5s 13 16 mph 1018.8mb 61f 56f
2:04 4.5ft 11s 13 16 mph 1019.2mb 59f 57f
1:04 4.5ft 11s 13 18 mph 1019.4mb 59f 58f
12:04 3.5ft 5s 16 20 mph 1019mb 59f 58f
ven. 09/23 11:04 4ft 5s 20 22 mph 1018.7mb 59f 59f
10:04 4ft 5s 18 22 mph 1017.7mb 59f 59f
9:04 3.5ft 5s 20 25 mph 1017.7mb 60f 60f
8:04 3ft 4s 20 25 mph 1017.3mb 60f 60f
7:04 3ft 4s 18 20 mph 1016.7mb 60f 60f
6:04 2.5ft 4s 18 20 mph 1016.3mb 60f 61f
5:04 1.6ft 6s 20 25 mph 1015.5mb 61f 62f
4:04 2ft 11s 9 16 mph 1014.7mb 61f 63f
3:04 1ft 3s 2 4 mph 1014.1mb 61f 63f
2:04 2ft 11s 4 7 mph 1014.2mb 61f 62f
1:04 2ft 11s 7
mph
1014.9mb 61f 62f
12:04 2.5ft 11s 7 9 mph 1014.7mb 61f 62f
11:04  -   -  7
mph
1014.3mb 61f 64f
10:04 2.5ft 11s 11 13 mph 1015.1mb 61f 63f
9:04 2.5ft 11s 9
mph
1015.3mb 61f 64f
8:04 2.5ft 11s 9
mph
1015.9mb 61f 63f
7:04 1.3ft 4s 11 13 mph 1015.5mb 62f 64f
6:04 1.6ft 4s 11
mph
1015.2mb 62f 64f
5:04 1.6ft 4s 13 16 mph 1015mb 62f 65f
4:04 2.5ft 11s 11 13 mph 1015.6mb 62f 65f
3:04 2.5ft 6s 11 13 mph 1016mb 62f 64f
2:04 2.5ft 3s 13 16 mph 1016.3mb 62f 66f
1:04 1.6ft 3s 13 16 mph 1016.9mb 62f 65f
12:04 2ft 3s 18 20 mph 1017.2mb 62f 66f
jeu. 09/22 11:04 1.6ft 3s 13 16 mph 1017.8mb 62f 65f
10:04 1.3ft 3s 11 13 mph 1018.2mb 62f 65f
9:04 2.5ft 11s 9
mph
1018.5mb 63f 65f
8:04 2.5ft 11s 9 11 mph 1018.5mb 64f 65f